Hourly Weather Roundup
Issued by NWS Central Illinois

Home | Current Version | Previous Version | Text Only | Print | Product List | Glossary On
Versions: 1 2 3 4 5 6 7 8 9 10 11 12 13 14 15 16 17 18 19 20 21 22 23 24 25 26 27 28 29 30 31 32 33 34 35 36 37 38 39 40 41 42 43 44 45 46 47 48 49 50
000
NZUS43 KILX 271310
HWRILX

AREA WEATHER ROUNDUP
NATIONAL WEATHER SERVICE, LINCOLN IL
800 AM CDT WED MAY 27 2015


CITY           SKY/WX    TMP DP  RH WIND       PRES   REMARKS
BLOOMINGTON    MOSUNNY   67  65  93 SW13      30.02R
CHAMPAIGN      PTSUNNY   70  63  78 SW14      30.02R
DANVILLE       PTSUNNY   68  64  86 SW12      30.00S
DECATUR        CLOUDY    68  63  84 SW12      30.02S
EFFINGHAM      CLOUDY    69  63  80 S7        30.06S
FLORA          PTSUNNY   67  63  86 S7        30.08S
GALESBURG      SUNNY     66  60  80 SW7       29.98R
JACKSONVILLE   CLOUDY    69  64  84 SW9       30.01S
LACON          SUNNY     67  59  75 W7        29.97R
LAWRENCEVILLE  PTSUNNY   70  63  78 S9        30.09R
LITCHFIELD     CLOUDY    65  62  89 S14       30.07R
$$


CITY           SKY/WX    TMP DP  RH WIND       PRES   REMARKS
LINCOLN        CLOUDY    70  64  80 SW8       29.97F
MACOMB         MOSUNNY   66  63  91 SW7       30.01R
MATTOON        CLOUDY    68  64  87 SW8       30.03S
MT CARMEL AP   PTSUNNY   72  63  73 SW12      30.09S
OLNEY-NOBLE AP CLOUDY    68  63  83 S6        30.08S
PARIS          PTSUNNY   71  64  77 SW14      30.05R
PEORIA         CLOUDY    68  63  84 SW7       29.99R
PONTIAC        PTSUNNY   70  65  85 SW15      29.99R
RANTOUL        CLOUDY    69  65  86 SW14      30.01S
ROBINSON       PTSUNNY   69  63  81 S10       30.09R
SPRINGFIELD    CLOUDY    70  64  81 SW9       30.00F
TAYLORVILLE    CLOUDY    68  63  83 S8        30.02S
$$

...REGIONAL REPORTS...


CITY           SKY/WX    TMP DP  RH WIND       PRES   REMARKS
CHICAGO O`HARE PTSUNNY   66  59  78 W20       29.93R
KANKAKEE       PTSUNNY   69  64  84 SW13G21   29.99R
MOLINE         CLOUDY    64  59  83 W10       29.97R
MOUNT VERNON   CLOUDY    66  61  82 S5        30.09R
PITTSFIELD     CLOUDY    68  64  85 SW8       30.03S
QUINCY         CLOUDY    67  62  84 W7        30.01R
ROCKFORD       CLOUDY    65  59  81 W10G21    29.93R
$$


CITY           SKY/WX    TMP DP  RH WIND       PRES   REMARKS
BURLINGTON     SUNNY     65  60  84 W10       29.99R
CEDAR RAPIDS   PTSUNNY   61  59  93 W14       29.97R
DES MOINES     MOSUNNY   62  55  77 W6        30.00S
KIRKSVILLE     SUNNY     64  59  83 W6        30.04R
OTTUMWA        SUNNY     62  58  86 W7        29.99S
ST LOUIS       CLOUDY    70  62  76 SW15G25   30.08R
$$


CITY           SKY/WX    TMP DP  RH WIND       PRES   REMARKS
TERRE HAUTE    MOSUNNY   69  64  84 SW9       30.07R
EVANSVILLE     MOSUNNY   70  64  81 S9        30.11S
INDIANAPOLIS   MOSUNNY   69  62  78 SW13      30.06R
LAFAYETTE      MOSUNNY   70  63  78 SW10G24   30.02R
MADISON        CLOUDY    62  57  83 W6        29.89R
MILWAUKEE      PTSUNNY   64  57  78 W12       29.88R
$$




USA.gov is the U.S. government's official web portal to all federal, state and local government web resources and services.